Flight Briefing for CMB804

Departure Arrival
Guantánamo Bay Naval Air Station (MUGM)
Click to view FAA NOTAMS
Norfolk Naval Station (Chambers Field) (KNGU)
Click to view FAA NOTAMS
Departure Time Arrival Time
N/A N/A
Aircraft Distance
B757-200SF 1025.27nm
Departure METAR Arrival METAR
MUGM 260956Z 35007KT 9999 FEW030 FEW120 23/23 A2994 RMK SLP139 T02280228 KNGU 260959Z 02020G28KT 7SM BKN015 BKN025 OVC045 08/05 A3004 RMK AO2 PK WND 02028/0958 SLP173 T00780050
Suggested Route
SOUTP EASTP ZIN Y350 ZQA BR65V ZFP WOLFO AR18 PANAL AR3 CLB ISO DRONE2


View recent IFR Routes data
Notes
USTRANSCOM CONTRACT FLIGHT | OVERFLIGHT OF CUBA PROHIBITED, SOUTP & EASTP FIXES MANDATORY

Charts and Procedures

Charts for MUGM
No chart available
Charts for KNGU
No chart available

Windy.com Weather Map